GW7021 Weather Reports


time (UTC)temp
F
wind
direction
speed
knots
gust
knots
rain 1hr
in
rain 24hr
in
rain mn
in
humidity
%
barometer
mb
20260507174005 64 45 0.0 0.9 0.00 0.00 0.00 71 1018.2
20260507173505 64 28 0.0 0.9 0.00 0.00 0.00 71 1018.2
20260507173006 65 314 0.0 0.9 0.00 0.00 0.00 70 1018.2
20260507172505 66 181 0.0 0.9 0.00 0.00 0.00 68 1018.4
20260507171505 67 339 0.9 1.7 0.00 0.00 0.00 66 1018.3
20260507171005 67 293 0.9 1.7 0.00 0.00 0.00 66 1018.4
20260507170505 67 277 0.9 1.7 0.00 0.00 0.00 64 1018.3
20260507170005 67 323 1.7 2.6 0.00 0.00 0.00 64 1018.3
20260507165505 68 327 1.7 2.6 0.00 0.00 0.00 63 1018.2
20260507165005 68 296 2.6 2.6 0.00 0.00 0.00 63 1018.1
20260507164505 68 306 2.6 3.5 0.00 0.00 0.00 62 1018.1
20260507163505 69 304 4.3 4.3 0.00 0.00 0.00 62 1018.3
20260507163005 69 309 3.5 4.3 0.00 0.00 0.00 60 1018.2
20260507162005 69 312 2.6 2.6 0.00 0.00 0.00 60 1018.0
20260507161505 69 311 1.7 2.6 0.00 0.00 0.00 60 1018.1
20260507161005 69 323 1.7 2.6 0.00 0.00 0.00 58 1018.2
20260507160505 70 310 2.6 3.5 0.00 0.00 0.00 57 1018.0
20260507160005 70 298 2.6 3.5 0.00 0.00 0.00 57 1018.1
20260507155005 72 228 2.6 4.3 0.00 0.00 0.00 55 1018.0
20260507154505 71 225 4.3 6.1 0.00 0.00 0.00 56 1017.9
20260507154005 71 231 5.2 7.8 0.00 0.00 0.00 57 1017.9
20260507153506 71 243 5.2 7.8 0.00 0.00 0.00 57 1018.3
20260507153005 71 248 3.5 5.2 0.00 0.00 0.00 57 1018.3
20260507151505 70 165 4.3 5.2 0.00 0.00 0.00 56 1018.1
20260507151005 70 142 5.2 7.0 0.00 0.00 0.00 56 1017.9
20260507150505 70 150 5.2 7.0 0.00 0.00 0.00 55 1018.0
20260507150006 70 153 5.2 7.0 0.00 0.00 0.00 54 1018.2
20260507145506 70 143 5.2 7.0 0.00 0.00 0.00 54 1018.1
20260507145005 71 143 5.2 6.1 0.00 0.00 0.00 53 1018.1
20260507144505 71 144 5.2 6.1 0.00 0.00 0.00 52 1018.0
20260507143503 72 171 3.5 6.1 0.00 0.00 0.00 51 1018.3
20260507143003 72 167 5.2 7.0 0.00 0.00 0.00 50 1018.2
20260507142503 72 178 5.2 7.0 0.00 0.00 0.00 50 1018.3
20260507142003 72 185 5.2 7.8 0.00 0.00 0.00 50 1018.2
20260507141502 72 184 5.2 7.8 0.00 0.00 0.00 50 1018.3
20260507140503 72 162 5.2 7.8 0.00 0.00 0.00 45 1018.2
20260507140003 72 144 7.8 9.6 0.00 0.00 0.00 48 1018.1
20260507135503 72 154 8.7 9.6 0.00 0.00 0.00 44 1018.0
20260507135003 73 169 8.7 9.6 0.00 0.00 0.00 43 1018.1
20260507134503 73 171 7.8 8.7 0.00 0.00 0.00 42 1018.1
20260507133503 73 156 9.6 10.4 0.00 0.00 0.00 41 1018.1
20260507133003 74 174 9.6 12.2 0.00 0.00 0.00 41 1018.2
20260507132503 73 162 10.4 12.2 0.00 0.00 0.00 42 1018.1
20260507131503 74 165 11.3 13.9 0.00 0.00 0.00 41 1017.9
20260507131003 74 150 11.3 13.9 0.00 0.00 0.00 40 1018.0
20260507130004 74 148 11.3 13.0 0.00 0.00 0.00 41 1018.1
20260507125503 75 162 10.4 13.9 0.00 0.00 0.00 42 1018.1
20260507125004 75 151 10.4 13.9 0.00 0.00 0.00 42 1018.3
20260507124503 74 143 10.4 13.0 0.00 0.00 0.00 46 1018.4
20260507124004 74 143 10.4 13.0 0.00 0.00 0.00 46 1018.4
20260507123503 74 121 10.4 13.0 0.00 0.00 0.00 49 1018.6
20260507123003 74 122 10.4 12.2 0.00 0.00 0.00 50 1018.6
20260507122503 74 152 9.6 11.3 0.00 0.00 0.00 51 1018.5
20260507122004 73 162 9.6 13.0 0.00 0.00 0.00 50 1018.3
20260507121503 73 165 9.6 13.0 0.00 0.00 0.00 48 1018.5
20260507121003 74 155 10.4 12.2 0.00 0.00 0.00 48 1018.6
20260507120004 74 177 12.2 14.8 0.00 0.00 0.00 48 1018.6
20260507115503 74 167 12.2 14.8 0.00 0.00 0.00 47 1018.6
20260507115003 73 154 12.2 14.8 0.00 0.00 0.00 50 1018.6
20260507114503 73 169 11.3 13.0 0.00 0.00 0.00 49 1018.5
20260507114004 73 188 10.4 12.2 0.00 0.00 0.00 48 1018.4
20260507113503 73 182 9.6 11.3 0.00 0.00 0.00 49 1018.5
20260507112503 73 150 9.6 13.0 0.00 0.00 0.00 48 1018.6
20260507112003 73 147 10.4 13.0 0.00 0.00 0.00 45 1018.6
20260507111003 74 144 10.4 13.0 0.00 0.00 0.00 43 1018.5
20260507110503 74 152 10.4 14.8 0.00 0.00 0.00 42 1018.5
20260507110003 74 147 11.3 14.8 0.00 0.00 0.00 40 1018.7
20260507105503 74 146 11.3 13.0 0.00 0.00 0.00 41 1018.8
20260507104503 74 152 10.4 13.0 0.00 0.00 0.00 40 1018.6
20260507103504 74 134 11.3 14.8 0.00 0.00 0.00 40 1018.7
20260507102504 74 148 10.4 13.0 0.00 0.00 0.00 42 1018.9
20260507102003 74 138 11.3 13.0 0.00 0.00 0.00 42 1018.8
20260507101503 75 139 11.3 13.0 0.00 0.00 0.00 40 1018.7
20260507101003 75 148 10.4 13.0 0.00 0.00 0.00 41 1018.8
20260507100503 74 152 10.4 13.0 0.00 0.00 0.00 40 1018.7
20260507100004 74 145 10.4 13.0 0.00 0.00 0.00 39 1018.8
20260507095003 74 137 10.4 13.0 0.00 0.00 0.00 40 1018.4
20260507094503 75 144 10.4 12.2 0.00 0.00 0.00 39 1018.5
20260507093503 75 168 8.7 10.4 0.00 0.00 0.00 40 1018.3
20260507092503 75 181 8.7 12.2 0.00 0.00 0.00 40 1018.4
20260507092004 75 162 9.6 10.4 0.00 0.00 0.00 40 1018.5
20260507091004 76 172 10.4 12.2 0.00 0.00 0.00 37 1018.4
20260507090504 77 167 10.4 12.2 0.00 0.00 0.00 35 1018.3
20260507090004 77 165 9.6 11.3 0.00 0.00 0.00 34 1018.3
20260507085503 77 151 10.4 13.0 0.00 0.00 0.00 36 1018.3
20260507085003 76 133 10.4 13.0 0.00 0.00 0.00 35 1018.4
20260507084503 77 148 9.6 11.3 0.00 0.00 0.00 35 1018.3
20260507083503 77 173 7.8 9.6 0.00 0.00 0.00 35 1018.3
20260507082503 76 156 7.8 9.6 0.00 0.00 0.00 36 1018.7
20260507081503 75 136 7.8 9.6 0.00 0.00 0.00 36 1018.4
20260507080504 75 150 6.1 7.0 0.00 0.00 0.00 37 1018.4
20260507080004 75 163 6.1 7.0 0.00 0.00 0.00 37 1018.5
20260507075503 75 148 6.1 7.8 0.00 0.00 0.00 40 1018.5
20260507075004 74 158 7.0 7.8 0.00 0.00 0.00 38 1018.5
20260507074004 74 169 6.1 7.0 0.00 0.00 0.00 37 1018.3
20260507073504 74 149 6.1 7.0 0.00 0.00 0.00 38 1018.2
20260507073004 74 170 7.0 8.7 0.00 0.00 0.00 39 1018.2
20260507072503 74 187 7.0 8.7 0.00 0.00 0.00 40 1018.4
20260507072003 73 177 7.0 8.7 0.00 0.00 0.00 41 1018.4
20260507071503 73 183 6.1 7.0 0.00 0.00 0.00 41 1018.4
20260507070008 73 200 3.5 4.3 0.00 0.00 0.00 42 1018.2
20260507065504 72 191 3.5 4.3 0.00 0.00 0.00 42 1018.2
20260507065004 72 178 2.6 3.5 0.00 0.00 0.00 46 1018.3
20260507064003 71 227 2.6 3.5 0.00 0.00 0.00 49 1018.4
20260507063503 70 225 2.6 3.5 0.00 0.00 0.00 50 1018.6
20260507063003 70 217 2.6 3.5 0.00 0.00 0.00 49 1018.5
20260507062004 69 163 2.6 2.6 0.00 0.00 0.00 52 1018.4
20260507061504 68 146 2.6 2.6 0.00 0.00 0.00 52 1018.3
20260507061004 67 149 2.6 2.6 0.00 0.00 0.00 57 1018.3
20260507060504 66 143 2.6 2.6 0.00 0.00 0.00 56 1018.4
20260507060003 66 131 1.7 2.6 0.00 0.00 0.00 56 1018.6
20260507055004 65 242 1.7 1.7 0.00 0.00 0.00 58 1018.4
20260507054504 63 257 1.7 1.7 0.00 0.00 0.00 61 1018.3
20260507054004 63 249 1.7 1.7 0.00 0.00 0.00 61 1018.2
20260507053503 63 231 1.7 2.6 0.00 0.00 0.00 64 1018.3
20260507052004 61 225 0.0 0.9 0.00 0.00 0.00 63 1018.4
20260507051504 61 225 0.0 0.9 0.00 0.00 0.00 70 1018.4
20260507051004 60 0 0.0 0.0 0.00 0.00 0.00 73 1018.3
20260507050504 59 225 0.0 1.7 0.00 0.00 0.00 75 1018.2
20260507050005 58 238 0.9 1.7 0.00 0.00 0.00 75 1018.1
20260507045004 56 270 0.9 1.7 0.00 0.00 0.00 77 1018.0
20260507044504 56 135 0.0 0.9 0.00 0.00 0.00 76 1017.8
20260507044004 55 202 0.9 1.7 0.00 0.00 0.00 77 1017.7
20260507043504 54 205 0.9 1.7 0.00 0.00 0.00 79 1017.7
20260507042504 54 329 0.9 1.7 0.00 0.00 0.00 79 1017.5
20260507042004 52 357 1.7 1.7 0.00 0.00 0.00 80 1017.4
20260507041504 53 27 1.7 1.7 0.00 0.00 0.00 78 1017.3
20260507041004 53 43 1.7 1.7 0.00 0.00 0.00 79 1017.2
20260507040504 53 45 1.7 1.7 0.00 0.00 0.00 81 1017.1
20260507040004 52 47 1.7 1.7 0.00 0.00 0.00 84 1017.1
20260507035504 51 68 1.7 2.6 0.00 0.00 0.00 86 1017.0
20260507035004 50 86 1.7 2.6 0.00 0.00 0.00 87 1017.0
20260507034505 49 84 1.7 3.5 0.00 0.00 0.00 87 1017.1
20260507034004 49 110 2.6 3.5 0.00 0.00 0.00 86 1017.1
20260507033504 49 122 2.6 3.5 0.00 0.00 0.00 86 1017.0
20260507033004 49 119 1.7 3.5 0.00 0.00 0.00 85 1017.0
20260507032504 49 143 1.7 2.6 0.00 0.00 0.00 84 1017.2
20260507032005 49 154 2.6 2.6 0.00 0.00 0.00 83 1017.3
20260507031504 49 161 0.9 2.6 0.00 0.00 0.00 82 1017.4
20260507031004 50 190 0.0 1.7 0.00 0.00 0.00 82 1017.4
20260507030504 50 60 0.9 1.7 0.00 0.00 0.00 82 1017.4
20260507030004 50 284 0.9 1.7 0.00 0.00 0.00 81 1017.2
20260507025504 51 291 1.7 1.7 0.00 0.00 0.00 80 1017.0
20260507025005 52 329 1.7 1.7 0.00 0.00 0.00 80 1017.0
20260507024504 52 358 1.7 1.7 0.00 0.00 0.00 81 1017.1
20260507024004 52 17 1.7 1.7 0.00 0.00 0.00 82 1017.0
20260507023504 51 35 1.7 1.7 0.00 0.00 0.00 82 1016.9
20260507023004 51 81 1.7 2.6 0.00 0.00 0.00 81 1016.8
20260507022504 52 119 1.7 2.6 0.00 0.00 0.00 82 1016.6
20260507022004 52 119 2.6 3.5 0.00 0.00 0.00 83 1016.6
20260507021504 51 118 1.7 3.5 0.00 0.00 0.00 85 1016.8
20260507021004 50 76 1.7 1.7 0.00 0.00 0.00 85 1016.8
20260507020005 50 90 1.7 2.6 0.00 0.00 0.00 84 1017.0
20260507015504 50 50 0.9 1.7 0.00 0.00 0.00 83 1017.0
20260507015004 51 39 0.9 1.7 0.00 0.00 0.00 85 1017.0
20260507014504 50 75 1.7 2.6 0.00 0.00 0.00 84 1016.9
20260507013504 51 87 1.7 1.7 0.00 0.00 0.00 83 1016.8
20260507013004 51 104 1.7 1.7 0.00 0.00 0.00 84 1017.0
20260507012504 50 109 1.7 1.7 0.00 0.00 0.00 83 1016.9
20260507012004 50 91 0.9 1.7 0.00 0.00 0.00 81 1017.0
20260507011504 51 58 0.9 1.7 0.00 0.00 0.00 81 1017.0
20260507010504 52 0 0.0 0.0 0.00 0.00 0.00 80 1017.0
20260507010004 53 72 0.9 1.7 0.00 0.00 0.00 81 1016.9
20260507005504 52 78 1.7 2.6 0.00 0.00 0.00 83 1016.7
20260507005005 51 83 1.7 2.6 0.00 0.00 0.00 83 1016.7
20260507004505 51 64 1.7 1.7 0.00 0.00 0.00 82 1016.8
20260507004005 52 57 1.7 1.7 0.00 0.00 0.00 83 1017.0
20260507003004 51 1 0.0 1.7 0.00 0.00 0.00 84 1016.7
20260507002504 51 33 0.9 1.7 0.00 0.00 0.00 81 1016.8
20260507001005 53 64 1.7 2.6 0.00 0.00 0.00 82 1016.8
20260507000505 51 66 1.7 2.6 0.00 0.00 0.00 82 1016.8
20260507000005 51 71 0.9 1.7 0.00 0.00 0.00 82 1016.8
20260506235504 52 25 0.9 1.7 0.00 0.00 0.00 80 1016.9
20260506235004 53 16 1.7 1.7 0.00 0.00 0.00 78 1016.8
20260506234504 54 15 1.7 1.7 0.00 0.00 0.00 79 1016.8
20260506234005 53 39 1.7 1.7 0.00 0.00 0.00 81 1016.8
20260506233505 52 74 1.7 2.6 0.00 0.00 0.00 82 1016.7
20260506233004 52 95 1.7 2.6 0.00 0.00 0.00 82 1016.7
20260506232504 52 85 1.7 1.7 0.00 0.00 0.00 82 1016.6
20260506232004 52 97 1.7 1.7 0.00 0.00 0.00 82 1016.9
20260506231504 52 125 1.7 1.7 0.00 0.00 0.00 83 1017.0
20260506231005 52 137 1.7 2.6 0.00 0.00 0.00 84 1016.9
20260506230504 51 130 0.9 2.6 0.00 0.00 0.00 83 1016.8
20260506230004 51 101 0.9 1.7 0.00 0.00 0.00 82 1017.1
20260506225504 52 98 1.7 1.7 0.00 0.00 0.00 81 1017.1
20260506225004 53 91 0.9 1.7 0.00 0.00 0.00 80 1017.0
20260506224004 54 32 1.7 2.6 0.00 0.00 0.00 81 1017.1
20260506223004 52 109 2.6 3.5 0.00 0.00 0.00 81 1017.1
20260506222504 53 132 2.6 3.5 0.00 0.00 0.00 81 1017.1
20260506221504 54 198 0.9 1.7 0.00 0.00 0.00 79 1017.3
20260506220505 55 35 1.7 1.7 0.00 0.00 0.00 74 1017.5
20260506220005 55 22 0.9 1.7 0.00 0.00 0.00 74 1017.4
20260506215504 55 347 0.9 3.5 0.00 0.00 0.00 76 1017.5
20260506214505 54 41 1.7 3.5 0.00 0.00 0.00 78 1017.4
20260506213005 54 79 1.7 1.7 0.00 0.00 0.00 80 1017.4
20260506212504 54 97 2.6 2.6 0.00 0.00 0.00 81 1017.4
20260506212004 54 106 2.6 2.6 0.00 0.00 0.00 80 1017.4
20260506211504 54 120 1.7 2.6 0.00 0.00 0.00 82 1017.3
20260506211005 53 126 1.7 1.7 0.00 0.00 0.00 82 1017.4
20260506210504 53 115 0.9 1.7 0.00 0.00 0.00 82 1017.5
20260506210009 53 100 0.0 1.7 0.00 0.00 0.00 81 1017.5
20260506205504 54 102 0.0 1.7 0.00 0.00 0.00 81 1017.6
20260506205004 54 173 0.0 1.7 0.00 0.00 0.00 81 1017.6
20260506204504 54 147 0.9 1.7 0.00 0.00 0.00 81 1017.5
20260506204007 54 139 0.9 1.7 0.00 0.00 0.00 80 1017.6
20260506203507 54 135 0.9 1.7 0.00 0.00 0.00 77 1017.5
20260506202505 55 191 0.9 1.7 0.00 0.00 0.00 74 1017.7
20260506202005 56 280 0.9 1.7 0.00 0.00 0.00 73 1017.6
20260506201505 56 308 0.9 1.7 0.00 0.00 0.00 74 1017.6
20260506195504 58 45 1.7 1.7 0.00 0.00 0.00 70 1017.7
20260506195004 58 45 0.9 1.7 0.00 0.00 0.00 69 1017.5
20260506194005 58 51 1.7 1.7 0.00 0.00 0.00 71 1017.5
20260506193504 58 49 1.7 1.7 0.00 0.00 0.00 70 1017.3
20260506193004 58 41 1.7 1.7 0.00 0.00 0.00 70 1017.3
20260506192504 58 40 1.7 1.7 0.00 0.00 0.00 70 1017.2
20260506192005 58 49 0.9 1.7 0.00 0.00 0.00 71 1017.5
20260506191505 58 80 0.9 1.7 0.00 0.00 0.00 72 1017.4
20260506191005 58 108 1.7 1.7 0.00 0.00 0.00 71 1017.2
20260506190505 59 129 1.7 1.7 0.00 0.00 0.00 71 1017.2
20260506190006 59 131 1.7 1.7 0.00 0.00 0.00 71 1017.1
20260506185505 60 133 1.7 1.7 0.00 0.00 0.00 70 1017.1
20260506185005 60 137 0.9 1.7 0.00 0.00 0.00 68 1017.0
20260506184505 60 156 0.9 1.7 0.00 0.00 0.00 67 1017.0
20260506184005 60 116 0.9 2.6 0.00 0.00 0.00 69 1017.0
20260506183505 61 101 1.7 2.6 0.00 0.00 0.00 66 1016.9
20260506183005 61 112 1.7 2.6 0.00 0.00 0.00 67 1016.9
20260506182505 60 130 1.7 2.6 0.00 0.00 0.00 69 1016.8
20260506182006 60 134 1.7 2.6 0.00 0.00 0.00 70 1016.7
20260506181505 61 128 1.7 2.6 0.00 0.00 0.00 69 1016.7
20260506180505 64 34 2.6 3.5 0.00 0.00 0.00 58 1016.6
20260506180006 64 43 2.6 3.5 0.00 0.00 0.00 57 1016.7
20260506175505 64 45 3.5 3.5 0.00 0.00 0.00 58 1016.7
20260506175005 64 46 3.5 3.5 0.00 0.00 0.00 58 1016.7
20260506174505 64 28 2.6 3.5 0.00 0.00 0.00 60 1016.5